星链-31845 (STARLINK-31845 )

导读 | 星芒AI

STARLINK-31845 是 SpaceX Starlink 卫星互联网项目中的一颗低轨卫星,属于 Starlink 群体的组成部分。该卫星由 SpaceX 制造并发射,旨在为全球用户提供高速互联网服务,特别是在网络基础设施薄弱的地区。它运行在约 550 公里的轨道高度,采用先进的通信技术,支持宽带数据传输。Starlink 项目致力于构建一个由数千颗卫星组成的星座,以实现全球覆盖,提升互联网接入的普及性和稳定性。STARLINK-31845 的部署有助于增强 Starlink 网络的容量与性能。

基本信息
目录编号:
60129
目录名称:
STARLINK-31845
国际标识:
2024-118S
轨道中心:
EARTH
卫星名称:
星链-31845
卫星全名:
星链-31845 (STARLINK-31845 )
卫星状态:
在轨 (已飞行496 天)
发射日期:
2024-06-24 UTC
国别 :
美国 (US)
星等 :
--
轨道信息
数据来源 国际轨道数据
星历时间: 2025-11-01T22:05:41+0800
20小时前
查看轨道信息
半长轴: 6853.375km
偏心率: 0.0001349
轨道倾角: 53.161°
近地点辐角 82.127°
升交点赤经 259.587°
平近点角 277.988°
近地点: 474.315km
远地点: 476.165km
周期: 94.106分钟
每日圈数: 15.301925
详细信息
固有亮度:
5
最大亮度:
1.5
卫星平台:
Starlink v2.0 mini
覆盖范围:
全球
运营商:
太空探索技术公司
运营商所在国:
美国
制造商(研发单位):
太空探索技术公司
制造商所在国:
美国
使用方式:
暂无
卫星简介
星链(Starlink)计划是由太空探索技术公司(SpaceX)提出的一个巨型低轨卫星互联网星座项目,计划在2019年至2024年间在太空搭建由约1.2万颗卫星组成的“星链”网络,其中1584颗将部署在地球上空550千米处的近地轨道,并从2020年开始工作。该卫星仍在工作。
2D轨道图
3D轨道图
轨道高度分析图
轨道倾角分析图
轨道综合分析图
查看轨道综合分析图